| time (UTC) | temp F | wind direction | speed knots | gust knots | rain 1hr in | rain 24hr in | rain mn in | humidity % | barometer mb |
| 20260506004927 | 38 | 288 | 9.6 | 24.3 | 0.00 | 0.48 | 0.46 | 60 | 1006.7 |
| 20260506003927 | 38 | 276 | 11.3 | 20.9 | 0.00 | 0.48 | 0.46 | 62 | 1006.7 |
| 20260506002927 | 38 | 264 | 7.8 | 22.6 | 0.00 | 0.48 | 0.46 | 63 | 1006.7 |
| 20260506001927 | 38 | 259 | 14.8 | 21.7 | 0.00 | 0.48 | 0.46 | 65 | 1006.6 |
| 20260506000927 | 38 | 247 | 14.8 | 24.3 | 0.00 | 0.48 | 0.46 | 65 | 1006.6 |
| 20260505235927 | 38 | 246 | 13.9 | 24.3 | 0.00 | 0.48 | 0.46 | 63 | 1006.5 |
| 20260505234928 | 38 | 248 | 17.4 | 30.4 | 0.00 | 0.48 | 0.46 | 61 | 1006.4 |
| 20260505233929 | 39 | 252 | 20.9 | 30.4 | 0.00 | 0.48 | 0.46 | 59 | 1006.3 |
| 20260505232928 | 38 | 246 | 16.5 | 26.1 | 0.00 | 0.48 | 0.46 | 57 | 1006.4 |
| 20260505231927 | 38 | 259 | 21.7 | 31.3 | 0.00 | 0.48 | 0.46 | 53 | 1006.3 |
| 20260505230927 | 39 | 258 | 23.5 | 35.6 | 0.00 | 0.48 | 0.46 | 47 | 1006.0 |
| 20260505225927 | 39 | 253 | 20.9 | 34.8 | 0.00 | 0.48 | 0.46 | 50 | 1006.1 |
| 20260505224930 | 41 | 250 | 21.7 | 36.5 | 0.00 | 0.48 | 0.46 | 52 | 1006.0 |
| 20260505223926 | 40 | 255 | 21.7 | 43.4 | 0.00 | 0.48 | 0.46 | 53 | 1006.1 |
| 20260505222926 | 39 | 258 | 19.1 | 33.9 | 0.00 | 0.48 | 0.46 | 56 | 1006.2 |
| 20260505221926 | 38 | 252 | 18.2 | 37.4 | 0.00 | 0.48 | 0.46 | 67 | 1006.2 |
| 20260505220926 | 37 | 250 | 14.8 | 28.7 | 0.00 | 0.48 | 0.46 | 76 | 1006.4 |
| 20260505215928 | 38 | 258 | 21.7 | 33.9 | 0.00 | 0.48 | 0.46 | 78 | 1006.4 |
| 20260505214927 | 37 | 258 | 17.4 | 37.4 | 0.00 | 0.48 | 0.46 | 79 | 1006.5 |
| 20260505213927 | 36 | 260 | 17.4 | 30.4 | 0.00 | 0.48 | 0.46 | 79 | 1006.6 |
| 20260505212928 | 36 | 257 | 19.1 | 33.9 | 0.00 | 0.48 | 0.46 | 79 | 1006.6 |
| 20260505211927 | 36 | 247 | 18.2 | 31.3 | 0.00 | 0.48 | 0.46 | 79 | 1006.8 |
| 20260505210926 | 36 | 271 | 18.2 | 28.7 | 0.00 | 0.48 | 0.46 | 79 | 1006.8 |
| 20260505205928 | 36 | 256 | 17.4 | 26.9 | 0.00 | 0.48 | 0.46 | 79 | 1007.0 |
| 20260505204927 | 36 | 248 | 18.2 | 28.7 | 0.00 | 0.48 | 0.46 | 79 | 1006.8 |
| 20260505203927 | 36 | 251 | 16.5 | 28.7 | 0.00 | 0.48 | 0.46 | 79 | 1007.0 |
| 20260505202928 | 37 | 256 | 20.0 | 32.2 | 0.00 | 0.48 | 0.46 | 79 | 1006.9 |
| 20260505201926 | 37 | 248 | 20.9 | 28.7 | 0.00 | 0.48 | 0.46 | 79 | 1006.9 |
| 20260505200926 | 37 | 252 | 16.5 | 30.4 | 0.00 | 0.48 | 0.46 | 79 | 1007.0 |
| 20260505195926 | 37 | 258 | 19.1 | 29.5 | 0.00 | 0.48 | 0.46 | 79 | 1007.0 |
| 20260505194926 | 37 | 254 | 20.0 | 32.2 | 0.00 | 0.48 | 0.46 | 79 | 1007.1 |
| 20260505193927 | 37 | 257 | 19.1 | 31.3 | 0.00 | 0.48 | 0.46 | 79 | 1007.1 |
| 20260505192927 | 36 | 249 | 17.4 | 31.3 | 0.00 | 0.48 | 0.46 | 79 | 1006.9 |
| 20260505191927 | 36 | 262 | 20.0 | 29.5 | 0.00 | 0.48 | 0.46 | 79 | 1007.2 |
| 20260505190926 | 37 | 255 | 19.1 | 34.8 | 0.00 | 0.48 | 0.46 | 79 | 1007.2 |
| 20260505185926 | 36 | 251 | 12.2 | 33.9 | 0.00 | 0.48 | 0.46 | 79 | 1007.3 |
| 20260505184926 | 37 | 254 | 17.4 | 32.2 | 0.00 | 0.48 | 0.46 | 79 | 1007.3 |
| 20260505183926 | 36 | 259 | 15.6 | 26.1 | 0.00 | 0.48 | 0.46 | 79 | 1007.3 |
| 20260505182926 | 36 | 261 | 16.5 | 27.8 | 0.00 | 0.48 | 0.46 | 79 | 1007.3 |
| 20260505181927 | 37 | 250 | 16.5 | 28.7 | 0.00 | 0.48 | 0.46 | 79 | 1007.4 |
| 20260505180927 | 37 | 254 | 17.4 | 26.1 | 0.00 | 0.48 | 0.46 | 79 | 1007.5 |
| 20260505175927 | 36 | 251 | 17.4 | 26.1 | 0.00 | 0.48 | 0.46 | 79 | 1007.4 |
| 20260505174926 | 37 | 259 | 15.6 | 26.1 | 0.00 | 0.48 | 0.46 | 79 | 1007.5 |
| 20260505173927 | 36 | 248 | 13.0 | 23.5 | 0.00 | 0.48 | 0.46 | 79 | 1007.4 |
| 20260505172928 | 37 | 260 | 15.6 | 23.5 | 0.00 | 0.48 | 0.46 | 79 | 1007.6 |
| 20260505171929 | 36 | 249 | 13.9 | 25.2 | 0.00 | 0.48 | 0.46 | 79 | 1007.5 |
| 20260505170927 | 36 | 238 | 14.8 | 27.8 | 0.00 | 0.48 | 0.46 | 79 | 1007.4 |
| 20260505165926 | 36 | 255 | 17.4 | 30.4 | 0.00 | 0.48 | 0.46 | 79 | 1007.5 |
| 20260505164926 | 36 | 259 | 10.4 | 25.2 | 0.00 | 0.48 | 0.46 | 79 | 1007.7 |
| 20260505163926 | 36 | 263 | 18.2 | 28.7 | 0.00 | 0.48 | 0.46 | 79 | 1007.4 |
| 20260505162926 | 36 | 251 | 15.6 | 26.1 | 0.00 | 0.48 | 0.46 | 79 | 1007.3 |
| 20260505161926 | 36 | 250 | 17.4 | 28.7 | 0.00 | 0.48 | 0.46 | 79 | 1007.1 |
| 20260505160926 | 36 | 262 | 17.4 | 28.7 | 0.02 | 0.48 | 0.46 | 79 | 1007.0 |
| 20260505152927 | 37 | 249 | 15.6 | 25.2 | 0.19 | 0.48 | 0.46 | 79 | 1006.9 |
| 20260505152256 | 37 | 245 | 19.1 | 26.1 | 0.24 | 0.48 | 0.46 | 79 | 1007.1 |
| 20260505151926 | 37 | 245 | 19.1 | 26.1 | 0.24 | 0.48 | 0.46 | 79 | 1007.1 |
| 20260505150927 | 37 | 243 | 14.8 | 23.5 | 0.23 | 0.46 | 0.44 | 79 | 1007.0 |
| 20260505123925 | 37 | 250 | 7.0 | 11.3 | 0.02 | 0.09 | 0.07 | 78 | 1006.7 |
| 20260505122925 | 37 | 250 | 7.8 | 12.2 | 0.02 | 0.09 | 0.07 | 78 | 1006.6 |
| 20260505121927 | 36 | 257 | 8.7 | 13.0 | 0.01 | 0.08 | 0.06 | 78 | 1006.6 |
| 20260505120926 | 36 | 256 | 7.8 | 15.6 | 0.01 | 0.08 | 0.06 | 78 | 1006.7 |
| 20260505115928 | 36 | 254 | 9.6 | 15.6 | 0.00 | 0.07 | 0.05 | 78 | 1006.6 |
| 20260505114925 | 36 | 243 | 9.6 | 14.8 | 0.00 | 0.07 | 0.05 | 78 | 1006.7 |
| 20260505113926 | 36 | 258 | 9.6 | 15.6 | 0.01 | 0.07 | 0.05 | 78 | 1006.7 |
| 20260505112925 | 36 | 260 | 9.6 | 13.9 | 0.01 | 0.07 | 0.05 | 78 | 1006.9 |
| 20260505111926 | 37 | 250 | 8.7 | 16.5 | 0.01 | 0.07 | 0.05 | 78 | 1006.8 |
| 20260505110929 | 36 | 253 | 10.4 | 17.4 | 0.02 | 0.07 | 0.05 | 78 | 1006.9 |
| 20260505101817 | 37 | 256 | 13.0 | 21.7 | 0.02 | 0.05 | 0.03 | 78 | 1007.3 |
| 20260505100925 | 37 | 256 | 13.0 | 21.7 | 0.02 | 0.05 | 0.03 | 78 | 1007.3 |
| 20260505095926 | 36 | 252 | 14.8 | 24.3 | 0.02 | 0.05 | 0.03 | 78 | 1007.3 |
| 20260505094925 | 37 | 247 | 13.9 | 23.5 | 0.02 | 0.05 | 0.03 | 78 | 1007.4 |
| 20260505093925 | 37 | 252 | 15.6 | 24.3 | 0.02 | 0.05 | 0.03 | 78 | 1007.5 |
| 20260505092925 | 37 | 255 | 14.8 | 22.6 | 0.01 | 0.04 | 0.02 | 78 | 1007.6 |
| 20260505091925 | 37 | 258 | 12.2 | 20.9 | 0.02 | 0.04 | 0.02 | 78 | 1007.8 |
| 20260505090927 | 37 | 254 | 12.2 | 21.7 | 0.01 | 0.03 | 0.01 | 78 | 1007.8 |
| 20260505085928 | 37 | 250 | 12.2 | 24.3 | 0.01 | 0.03 | 0.01 | 78 | 1008.0 |
| 20260505084925 | 37 | 252 | 16.5 | 25.2 | 0.02 | 0.03 | 0.01 | 78 | 1008.2 |
| 20260505083522 | 37 | 247 | 17.4 | 26.9 | 0.02 | 0.03 | 0.01 | 78 | 1008.2 |
| 20260505082522 | 38 | 245 | 16.5 | 23.5 | 0.03 | 0.03 | 0.01 | 78 | 1008.3 |
| 20260505081522 | 38 | 245 | 16.5 | 24.3 | 0.02 | 0.02 | 0.00 | 78 | 1008.5 |
| 20260505080523 | 38 | 247 | 16.5 | 26.1 | 0.02 | 0.02 | 0.02 | 78 | 1008.7 |
| 20260505075522 | 38 | 244 | 19.1 | 28.7 | 0.01 | 0.01 | 0.01 | 78 | 1008.6 |
| 20260505074522 | 38 | 249 | 20.0 | 29.5 | 0.01 | 0.01 | 0.01 | 78 | 1008.5 |
| 20260505073522 | 37 | 250 | 18.2 | 27.8 | 0.01 | 0.01 | 0.01 | 78 | 1008.8 |
| 20260505071522 | 37 | 260 | 20.0 | 31.3 | 0.00 | 0.00 | 0.00 | 78 | 1008.8 |
| 20260505070522 | 36 | 253 | 21.7 | 31.3 | 0.00 | 0.00 | 0.00 | 78 | 1008.6 |
| 20260505065524 | 37 | 250 | 20.9 | 26.9 | 0.00 | 0.00 | 0.00 | 78 | 1008.6 |
| 20260505065025 | 37 | 252 | 22.6 | 30.4 | 0.00 | 0.00 | 0.00 | 78 | 1008.5 |
| 20260505064522 | 37 | 252 | 22.6 | 30.4 | 0.00 | 0.00 | 0.00 | 78 | 1008.5 |
| 20260505063522 | 36 | 254 | 20.0 | 28.7 | 0.00 | 0.00 | 0.00 | 77 | 1008.6 |
| 20260505062522 | 36 | 257 | 20.9 | 30.4 | 0.00 | 0.00 | 0.00 | 77 | 1008.8 |
| 20260505061522 | 36 | 254 | 20.0 | 31.3 | 0.00 | 0.00 | 0.00 | 77 | 1008.8 |
| 20260505060522 | 36 | 258 | 21.7 | 30.4 | 0.00 | 0.00 | 0.00 | 77 | 1008.9 |
| 20260505055522 | 36 | 262 | 20.9 | 34.8 | 0.00 | 0.00 | 0.00 | 77 | 1009.0 |
| 20260505054525 | 36 | 255 | 22.6 | 29.5 | 0.00 | 0.00 | 0.00 | 77 | 1008.8 |
| 20260505053522 | 36 | 259 | 21.7 | 34.8 | 0.00 | 0.00 | 0.00 | 77 | 1008.9 |
| 20260505052522 | 37 | 245 | 21.7 | 32.2 | 0.00 | 0.00 | 0.00 | 77 | 1008.9 |
| 20260505051522 | 37 | 247 | 23.5 | 31.3 | 0.00 | 0.00 | 0.00 | 77 | 1008.8 |
| 20260505050522 | 37 | 255 | 22.6 | 31.3 | 0.00 | 0.00 | 0.00 | 76 | 1008.7 |
| 20260505041522 | 37 | 250 | 21.7 | 32.2 | 0.00 | 0.00 | 0.00 | 75 | 1008.7 |
| 20260505040522 | 37 | 252 | 20.9 | 30.4 | 0.00 | 0.00 | 0.00 | 74 | 1008.9 |
| 20260505035523 | 37 | 257 | 22.6 | 31.3 | 0.00 | 0.00 | 0.00 | 72 | 1008.8 |
| 20260505034522 | 37 | 253 | 22.6 | 31.3 | 0.00 | 0.00 | 0.00 | 70 | 1008.9 |
| 20260505033523 | 37 | 252 | 20.9 | 31.3 | 0.00 | 0.00 | 0.00 | 68 | 1008.9 |
| 20260505032522 | 38 | 252 | 20.0 | 28.7 | 0.00 | 0.00 | 0.00 | 67 | 1008.7 |
| 20260505031524 | 38 | 240 | 18.2 | 23.5 | 0.00 | 0.00 | 0.00 | 66 | 1008.5 |
| 20260505030524 | 39 | 247 | 20.9 | 27.8 | 0.00 | 0.00 | 0.00 | 66 | 1008.8 |
| 20260505025522 | 39 | 255 | 18.2 | 27.8 | 0.00 | 0.00 | 0.00 | 64 | 1008.9 |
| 20260505024522 | 39 | 251 | 20.0 | 30.4 | 0.00 | 0.00 | 0.00 | 64 | 1008.8 |
| 20260505023522 | 39 | 248 | 22.6 | 33.0 | 0.00 | 0.00 | 0.00 | 63 | 1008.8 |
| 20260505022023 | 40 | 249 | 22.6 | 31.3 | 0.00 | 0.00 | 0.00 | 62 | 1008.6 |
| 20260505021022 | 40 | 246 | 22.6 | 30.4 | 0.00 | 0.00 | 0.00 | 57 | 1008.5 |
| 20260505020022 | 41 | 245 | 20.9 | 30.4 | 0.00 | 0.00 | 0.00 | 53 | 1008.7 |
| 20260505015022 | 41 | 244 | 20.0 | 28.7 | 0.00 | 0.00 | 0.00 | 51 | 1008.8 |
| 20260505014022 | 41 | 247 | 20.9 | 32.2 | 0.00 | 0.00 | 0.00 | 50 | 1008.8 |
| 20260505013057 | 42 | 254 | 23.5 | 31.3 | 0.00 | 0.00 | 0.00 | 50 | 1008.8 |
| 20260505013022 | 42 | 254 | 23.5 | 31.3 | 0.00 | 0.00 | 0.00 | 50 | 1008.8 |
| 20260505012022 | 42 | 249 | 20.0 | 26.9 | 0.00 | 0.00 | 0.00 | 49 | 1008.9 |
| 20260505011022 | 42 | 247 | 20.0 | 26.9 | 0.00 | 0.00 | 0.00 | 48 | 1008.8 |
| 20260505010024 | 42 | 247 | 20.0 | 27.8 | 0.00 | 0.00 | 0.00 | 47 | 1009.0 |